2014 FM38

Initial reported observation by Mt. Lemmon Survey on 2014-03-28.
(Discoverer will be defined when the object is numbered. See this note on how discoverers are determined.)

Orbit

Orbit type: Apollo
Near-Earth Object
One opposition object seen prior.

Note: WebGL enabled browser required.

epoch2023-02-25.0
epoch JD2460000.5
perihelion date2021-08-08.95733
perihelion JD2459435.45733
argument of perihelion (°)97.19708
ascending node (°)4.77657
inclination (°)13.97993
eccentricity0.5023736
perihelion distance (AU)0.7589675
Tisserand w.r.t. Jupiter4.3
ΔV w.r.t. Earth (km/sec)7.5
semimajor axis (AU)1.5251752
mean anomaly (°)295.66879
mean daily motion (°/day)0.52326810
aphelion distance (AU)2.291
period (years)1.88
P-vector [x]-0.20501485
P-vector [y]0.77531412
P-vector [z]0.59737503
Q-vector [x]-0.97855211
Q-vector [y]-0.17491061
Q-vector [z]-0.10882117
absolute magnitude25.09
phase slope0.15
uncertainty8
referenceMPO 750185
observations used30
oppositions1
arc length (days)16
first opposition used2014
last opposition used2014
residual rms (arc-secs)0.41
perturbers coarse indicatorM-v
perturbers precise indicator003Ek
first observation date used2014-03-19.0
last observation date used2014-04-04.0
computer nameMPCLINUX
JD of orbit computation2456745.940073
perihelion JD uncertainty (days)7.6737E-02
argument of perihelion uncertainty (°)2.2911E-02
ascending node uncertainty (°)1.7850E-03
inclination uncertainty (°)3.3678E-02
eccentricity uncertainty 1.9323E-03
perihelion distance uncertainty (AU)8.1486E-04
Minimum Orbit Intersection Distances (in AU)
for orbit epoch: 2460000.5, reference: E2023-HO4
Mercury0.4483
Venus0.13206
Earth0.03553
Mars0.0374
Jupiter2.98994
Saturn7.85149
Uranus17.0744
Neptune28.0751

Observations

30 total observations over interval: 2014 03 19.46633 – 2014 04 04.086367
These data are available for download (format description).

Date (UT) J2000 RA J2000 Dec Magn Location Ref
2014 03 19.46633 14 10 25.27 +32 23 42.8   F51 – Pan-STARRS 1, Haleakala MPS 1878464
2014 03 19.46814 14 10 20.94 +32 22 43.7   F51 – Pan-STARRS 1, Haleakala MPS 1878464
2014 03 19.55045 14 07 06.38 +31 37 52.8   F51 – Pan-STARRS 1, Haleakala MPS 1878464
2014 03 19.56054 14 06 42.91 +31 32 21.7   F51 – Pan-STARRS 1, Haleakala MPS 1878464
2014 03 28.28228 12 07 48.52 -07 39 03.7 20.6 V G96 – Mt. Lemmon Survey MPS 508686
2014 03 28.28747 12 07 46.91 -07 39 33.9 20.5 V G96 – Mt. Lemmon Survey MPS 508686
2014 03 28.29264 12 07 45.39 -07 40 04.7 20.8 V G96 – Mt. Lemmon Survey MPS 508686
2014 03 28.29782 12 07 43.86 -07 40 34.2 19.8 V G96 – Mt. Lemmon Survey MPS 508686
2014 03 28.34032 12 07 30.96 -07 44 41.7 20.7 V G96 – Mt. Lemmon Survey MPS 508686
2014 03 28.34540 12 07 29.45 -07 45 10.8 20.6 V G96 – Mt. Lemmon Survey MPS 508686
2014 03 28.35048 12 07 27.93 -07 45 39.9 20.6 V G96 – Mt. Lemmon Survey MPS 508686
2014 03 28.35557 12 07 26.40 -07 46 09.6 20.5 V G96 – Mt. Lemmon Survey MPS 508686
2014 03 28.39587 12 07 14.49 -07 49 59.8 20.1 R 291 – LPL/Spacewatch II MPS 508686
2014 03 28.39657 12 07 14.30 -07 50 03.6 20.4 R 291 – LPL/Spacewatch II MPS 508686
2014 03 28.39725 12 07 14.10 -07 50 07.6 20.3 R 291 – LPL/Spacewatch II MPS 508686
2014 03 28.40872 12 07 10.65 -07 51 13.4 21.1 V G96 – Mt. Lemmon Survey MPS 508686
2014 03 28.40960 12 07 10.41 -07 51 18.4 20.9 V G96 – Mt. Lemmon Survey MPS 508686
2014 03 28.96516 12 04 52.18 -08 42 06.3 21.0 R 204 – Schiaparelli Observatory MPS 508686
2014 03 28.99064 12 04 45.26 -08 44 20.0   204 – Schiaparelli Observatory MPS 508686
2014 03 29.12230 12 04 16.32 -08 53 52.4 21.0 V 807 – Cerro Tololo Observatory, La Serena MPS 508686
2014 03 29.12862 12 04 14.66 -08 54 24.3 21.1 V 807 – Cerro Tololo Observatory, La Serena MPS 508686
2014 03 29.13493 12 04 12.96 -08 54 56.7 21.3 V 807 – Cerro Tololo Observatory, La Serena MPS 508686
2014 03 29.13781 12 04 13.76 -08 56 42.6 20.4 R H36 – Sandlot Observatory, Scranton MPS 508686
2014 03 29.16100 12 04 07.73 -08 58 41.2 20.4 R H36 – Sandlot Observatory, Scranton MPS 508686
2014 03 29.226324 12 03 51.64 -09 04 03.1 20.6 R H01 – Magdalena Ridge Observatory, Socorro MPS 508686
2014 03 29.233695 12 03 49.71 -09 04 40.0 20.8 R H01 – Magdalena Ridge Observatory, Socorro MPS 508686
2014 03 29.243952 12 03 47.02 -09 05 31.3 20.4 R H01 – Magdalena Ridge Observatory, Socorro MPS 508686
2014 03 29.247789 12 03 46.01 -09 05 50.4 20.4 R H01 – Magdalena Ridge Observatory, Socorro MPS 508686
2014 04 04.085334 11 48 36.74 -14 25 22.0   309 – Cerro Paranal MPS 1878464
2014 04 04.086367 11 48 36.63 -14 25 24.5   309 – Cerro Paranal MPS 1878464